Weather History for KRFD - April, 2013

Change the Weather History Date:

Monday, April 22, 2013

  Actual Average Record
Temperature  
Mean Temperature 53 °F 52 °F  
Max Temperature 68 °F 64 °F 91 °F (1980)
Min Temperature 38 °F 41 °F 23 °F (1986)
Degree Days  
Heating Degree Days 12 13  
Month to date heating degree days 459 381  
Since 1 July heating degree days 6288 6245  
Cooling Degree Days 0 0  
Month to date cooling degree days 0 0  
Year to date cooling degree days 0 0  
Growing Degree Days 2 (Base 50)    
Moisture  
Dew Point 37 °F    
Average Humidity 57    
Maximum Humidity 79    
Minimum Humidity 34    
Precipitation  
Precipitation T in 0.11 in 1.16 in (1999)
Month to date precipitation 7.54 2.44  
Year to date precipitation 15.90 7.54  
Snow  
Snow 0.00 in 0.00 in 0.10 in (1984)
Month to date snowfall T 0.8  
Since 1 July snowfall 40.5 36.6  
Snow Depth 0.00 in    
Sea Level Pressure  
Sea Level Pressure 30.19 in    
Wind  
Wind Speed 11 mph (SSE)    
Max Wind Speed 20 mph    
Max Gust Speed 28 mph    
Visibility 10 miles    
Events      
T = Trace of Precipitation, MM = Missing Value Source: NWS Daily Summary

Daily Weather History Graph

Daily Weather History Graph

Search for Another Location

Airport or City:

Trip Planner

Search our weather history database for the weather conditions in past years. The results will help you decide how hot, cold, wet, or windy it might be!

Date:

Astronomy

Apr. 22, 2013 Rise Set
Actual Time 6:04 AM CDT 7:45 PM CDT
Civil Twilight 5:34 AM CDT 8:15 PM CDT
Nautical Twilight 4:58 AM CDT 8:51 PM CDT
Astronomical Twilight 4:20 AM CDT 9:30 PM CDT
Moon 4:31 PM CDT (4/22) 4:02 AM CDT (4/22)
Length of Visible Light 14h 40m
Length of Day
13h 41m
Waxing Gibbous, 88% of the Moon is Illuminated
Apr 22
Waxing Gibbous
Apr 25
Full
May 2
Last Quarter
May 9
New
May 17
First Quarter

Hourly Weather History & Observations

Time (CDT) Temp. Windchill Dew Point Humidity Pressure Visibility Wind Dir Wind Speed Gust Speed Precip Events Conditions
12:54 AM 44.1 °F 38.1 °F 34.0 °F 68% 30.32 in 10.0 mi South 11.5 mph - N/A   Scattered Clouds
1:54 AM 43.0 °F 36.8 °F 33.1 °F 68% 30.31 in 10.0 mi South 11.5 mph - N/A   Scattered Clouds
2:54 AM 41.0 °F 34.3 °F 33.1 °F 73% 30.29 in 10.0 mi SSE 11.5 mph - N/A   Scattered Clouds
3:54 AM 39.0 °F 33.4 °F 32.0 °F 76% 30.29 in 10.0 mi South 8.1 mph - N/A   Scattered Clouds
4:54 AM 39.0 °F 34.0 °F 33.1 °F 79% 30.29 in 10.0 mi South 6.9 mph - N/A   Mostly Cloudy
5:54 AM 39.9 °F 34.5 °F 33.1 °F 77% 30.27 in 10.0 mi SE 8.1 mph - N/A   Scattered Clouds
6:54 AM 39.9 °F 36.7 °F 33.1 °F 77% 30.27 in 10.0 mi SSE 4.6 mph - N/A   Scattered Clouds
7:54 AM 45.0 °F 40.1 °F 34.0 °F 65% 30.27 in 10.0 mi South 9.2 mph - N/A   Mostly Cloudy
8:54 AM 50.0 °F - 36.0 °F 59% 30.27 in 10.0 mi South 8.1 mph - N/A   Scattered Clouds
9:54 AM 54.0 °F - 36.0 °F 51% 30.26 in 10.0 mi South 12.7 mph - N/A   Mostly Cloudy
10:54 AM 57.9 °F - 37.0 °F 46% 30.25 in 10.0 mi South 15.0 mph - N/A   Mostly Cloudy
11:54 AM 61.0 °F - 37.9 °F 42% 30.24 in 10.0 mi South 13.8 mph - N/A   Scattered Clouds
12:54 PM 64.0 °F - 39.9 °F 41% 30.19 in 10.0 mi South 12.7 mph 20.7 mph N/A   Mostly Cloudy
1:54 PM 66.0 °F - 37.9 °F 36% 30.17 in 10.0 mi South 16.1 mph 21.9 mph N/A   Mostly Cloudy
2:54 PM 66.9 °F - 39.9 °F 37% 30.13 in 10.0 mi SSE 16.1 mph 21.9 mph N/A   Mostly Cloudy
3:54 PM 66.9 °F - 37.9 °F 34% 30.11 in 10.0 mi South 15.0 mph - N/A   Mostly Cloudy
4:54 PM 66.9 °F - 37.0 °F 33% 30.07 in 10.0 mi SSE 15.0 mph - N/A   Mostly Cloudy
5:54 PM 64.0 °F - 37.9 °F 38% 30.06 in 10.0 mi SSE 17.3 mph - N/A   Mostly Cloudy
6:54 PM 63.0 °F - 39.0 °F 41% 30.06 in 10.0 mi SSE 15.0 mph - N/A   Mostly Cloudy
7:54 PM 59.0 °F - 39.9 °F 49% 30.06 in 10.0 mi SE 9.2 mph - N/A   Mostly Cloudy
8:54 PM 57.0 °F - 39.9 °F 53% 30.06 in 10.0 mi SSE 10.4 mph - N/A   Mostly Cloudy
9:54 PM 55.9 °F - 39.9 °F 55% 30.06 in 10.0 mi SSE 12.7 mph - N/A   Mostly Cloudy
10:54 PM 55.9 °F - 39.0 °F 53% 30.06 in 10.0 mi SSE 9.2 mph - N/A   Mostly Cloudy
11:54 PM 55.0 °F - 39.9 °F 57% 30.04 in 10.0 mi SE 6.9 mph - N/A   Overcast